Beverly, MA

4:31 AM EDT on May 27, 2018 (GMT -0400)
Beverly Municipal

Weather History for KBVY - November, 2013

Change the Weather History Date:

Monday, November 25, 2013

  Actual Average Record
Temperature  
Mean Temperature 24 °F -  
Max Temperature 32 °F 46 °F 68 °F (1979)
Min Temperature 17 °F 30 °F 12 °F (2000)
Degree Days  
Heating Degree Days 40    
Moisture  
Dew Point -2 °F    
Average Humidity 31    
Maximum Humidity 48    
Minimum Humidity 14    
Precipitation  
Precipitation 0.00 in - - ()
Sea Level Pressure  
Sea Level Pressure 30.29 in    
Wind  
Wind Speed 13 mph (West)    
Max Wind Speed 17 mph    
Max Gust Speed 25 mph    
Visibility 10 miles    
Events      
Averages and records for this station are not official NWS values.
T = Trace of Precipitation, MM = Missing Value Source: NWS Daily Summary

Daily Weather History Graph

Daily Weather History Graph

Search for Another Location

Airport or City:

Astronomy

Nov. 25, 2013 Rise Set
Actual Time 6:47 AM EST 4:13 PM EST
Civil Twilight 6:16 AM EST 4:44 PM EST
Nautical Twilight 5:41 AM EST 5:19 PM EST
Astronomical Twilight 5:07 AM EST 5:53 PM EST
Moon 11:40 PM EST (11/25) 11:57 AM EST (11/25)
Length of Visible Light 10h 28m
Length of Day
9h 26m
Waning Gibbous, 51% of the Moon is Illuminated
Nov 25
Waning Gibbous
Nov 25
Last Quarter
Dec 2
New
Dec 9
First Quarter
Dec 17
Full

Hourly Weather History & Observations

Time (EST) Temp. Windchill Dew Point Humidity Pressure Visibility Wind Dir Wind Speed Gust Speed Precip Events Conditions
12:53 AM 19.9 °F 5.2 °F -6.0 °F 32% 30.17 in 10.0 mi WNW 17.3 mph 23.0 mph N/A   Clear
1:53 AM 19.0 °F 5.6 °F -6.0 °F 33% 30.19 in 10.0 mi WNW 13.8 mph 21.9 mph N/A   Clear
2:53 AM 19.0 °F 6.8 °F -6.0 °F 33% 30.20 in 10.0 mi West 11.5 mph 23.0 mph N/A   Clear
3:53 AM 18.0 °F 4.2 °F -6.0 °F 35% 30.24 in 10.0 mi West 13.8 mph 25.3 mph N/A   Clear
4:53 AM 18.0 °F 4.2 °F -6.0 °F 35% 30.25 in 10.0 mi WNW 13.8 mph 23.0 mph N/A   Clear
5:53 AM 17.1 °F 2.5 °F -6.0 °F 36% 30.27 in 10.0 mi WNW 15.0 mph - N/A   Clear
6:53 AM 18.0 °F 4.8 °F -6.0 °F 35% 30.30 in 10.0 mi WNW 12.7 mph 20.7 mph N/A   Mostly Cloudy
7:53 AM 19.0 °F 6.8 °F -7.1 °F 31% 30.32 in 10.0 mi NW 11.5 mph - N/A   Mostly Cloudy
8:53 AM 21.0 °F 6.6 °F -8.0 °F 28% 30.33 in 10.0 mi WNW 17.3 mph 24.2 mph N/A   Mostly Cloudy
9:53 AM 24.1 °F 11.0 °F -9.0 °F 23% 30.35 in 10.0 mi NW 16.1 mph 21.9 mph N/A   Clear
10:53 AM 27.0 °F 16.1 °F -9.9 °F 20% 30.33 in 10.0 mi WNW 12.7 mph 23.0 mph N/A   Partly Cloudy
11:53 AM 30.0 °F 18.3 °F -11.9 °F 16% 30.32 in 10.0 mi NW 17.3 mph - N/A   Scattered Clouds
12:53 PM 32.0 °F 22.1 °F -13.0 °F 14% 30.30 in 10.0 mi NW 13.8 mph - N/A   Scattered Clouds
1:53 PM 32.0 °F 23.6 °F -9.0 °F 17% 30.30 in 10.0 mi WNW 10.4 mph - N/A   Clear
2:53 PM 32.0 °F 25.6 °F -6.0 °F 19% 30.30 in 10.0 mi West 6.9 mph - N/A   Clear
3:53 PM 30.9 °F 24.3 °F -0.9 °F 26% 30.32 in 10.0 mi WSW 6.9 mph - N/A   Clear
4:53 PM 28.0 °F 22.8 °F 1.0 °F 31% 30.32 in 10.0 mi SSW 4.6 mph - N/A   Clear
5:53 PM 28.0 °F 21.7 °F 3.0 °F 34% 30.33 in 10.0 mi South 5.8 mph - N/A   Clear
6:53 PM 28.9 °F 21.9 °F 6.1 °F 38% 30.33 in 10.0 mi SW 6.9 mph - N/A   Clear
7:53 PM 28.9 °F 21.9 °F 7.0 °F 40% 30.32 in 10.0 mi SW 6.9 mph - N/A   Clear
8:53 PM 30.0 °F 21.7 °F 8.1 °F 40% 30.31 in 10.0 mi SSW 9.2 mph - N/A   Clear
9:53 PM 30.9 °F 22.8 °F 9.0 °F 40% 30.29 in 10.0 mi SSW 9.2 mph - N/A   Partly Cloudy
10:53 PM 32.0 °F 23.0 °F 12.0 °F 44% 30.27 in 10.0 mi SSW 11.5 mph - N/A   Clear
11:53 PM 32.0 °F 24.2 °F 14.0 °F 48% 30.26 in 10.0 mi SSW 9.2 mph - N/A   Clear